Location: Unspecified
(33.6682°S, 0.0000°E)
Time: 01:30:27
(UTC+00:00)

S-56A Canister/Altair - Pass Details

Date: 29 June 2019
Orbit: 633 x 2499 km, 38.9° (Epoch: 17 August)

Event Time Altitude Azimuth Distance (km) Brightness Sun altitude
Exits shadow 05:10:21 35° 243° (WSW) 2,299 9.4 -23.2°
Maximum altitude 05:15:07 71° 168° (SSE) 1,864 9.3 -22.3°
Drops below altitude 10° 05:28:27 10° 84° (E) 4,881 12.8 -19.6°
Sets 05:32:43 0° 81° (E) 6,039 13.7 -18.7°
